Regional Weather Roundup
Issued by NWS

Home | Current Version | Previous Version | Graphics & Text | Print | Product List | Glossary On
Versions: 1 2 3 4 5 6 7 8 9 10 11 12 13 14 15 16 17 18 19 20 21 22 23 24 25 26 27 28 29 30 31 32 33 34 35 36 37 38 39 40 41 42 43 44 45 46 47 48 49 50
000
ASUS45 KSLC 140010
RWRUT

UTAH REGIONAL WEATHER ROUNDUP
NATIONAL WEATHER SERVICE SALT LAKE CITY UT
600 PM MDT SUN JUL 13 2014

UTZ001>011-023>025-140100-

NORTHERN UTAH

CITY           SKY/WX    TMP DP  RH WIND       PRES   REMARKS
HILL AFB       SUNNY     95  41  15 VRB2      30.15F HX  91
LOGAN          NOT AVBL
OGDEN          NOT AVBL
PROVO AIRPORT  MOSUNNY   93  52  24 NW13      30.11F HX  90
SALT LAKE CITY MOSUNNY   97  44  16 NW12      30.08F HX  93
VERNAL         NOT AVBL
WENDOVER       NOT AVBL
HEBER CITY     SUNNY     91  45  19 N9        30.19F
WEST JORDAN    SUNNY     97  54  23 NW12      30.13F HX  94

$$

UTZ012>022-026-027-140100-

SOUTHERN UTAH

CITY           SKY/WX    TMP DP  RH WIND       PRES   REMARKS
CEDAR CITY     NOT AVBL
MILFORD        NOT AVBL
MOAB/CYNLANDS  NOT AVBL
PRICE          NOT AVBL
ST GEORGE      NOT AVBL

$$

REGIONAL REPORTS     COLORADO/ARIZONA

CITY           SKY/WX    TMP DP  RH WIND       PRES   REMARKS
CRAIG, CO      MOSUNNY   79  46  31 W5        30.24F
GRAND JUNCTION MOSUNNY   96  45  17 W7        30.06F HX  92
RIFLE          MOSUNNY   92  40  16 N10G17    30.15F
MONTROSE       MOSUNNY   93  41  16 N12       30.16F
CORTEZ         MOSUNNY   91  45  20 W6        30.16F
PAGE, AZ       MOSUNNY  102  41  12 VRB5G17   30.00F HX  97
GRAND CANYON   PTSUNNY   87  42  20 NE8       30.26F
KINGMAN        MOSUNNY  100  45  15 SW13      29.97F HX  96
FLAGSTAFF      PTSUNNY   77  51  40 SW14      30.31S

$$

REGIONAL REPORTS    NEVADA/IDAHO/WYOMING

CITY           SKY/WX    TMP DP  RH WIND       PRES   REMARKS
LAS VEGAS, NV  MOSUNNY  111  38   8 S3        29.78F HX 104
ELY            NOT AVBL
ELKO           SUNNY     99  33  10 VRB5      30.11F HX  93
POCATELLO, ID  NOT AVBL
EVANSTON, WY   NOT AVBL
ROCK SPRINGS   NOT AVBL

$$



USA.gov is the U.S. government's official web portal to all federal, state and local government web resources and services.